EHI
53 72 92 98 98 98 99 100 100 100 100 98 94 87 78 66 53 42 31 21 15 11 7 5 4 3 2 2 1 0 0 0 0 0 0 0 0 0 0 0 0 0 0
62 78 94 99 99 99 100 100 100 100 99 96 91 83 70 51 35 26 18 12 8 6 4 3 2 1 1 1 0 0 0 0 0 0 0 0 0 0 0 0 0 0 0
67 82 96 99 99 99 100 100 99 97 95 90 82 69 51 30 16 10 6 3 2 1 1 0 0 0 0 0 0 0 0 0 0 0 0 0 0 0 0 0 0 0 0
64 82 97 99 98 97 97 95 93 89 86 81 70 54 34 18 9 4 1 0 0 0 0 0 0 0 0 0 0 0 0 0 0 0 0 0 0 0 0 0 0 0 0
63 82 96 97 94 88 84 79 75 72 69 63 55 41 26 14 6 2 0 0 0 0 0 0 0 0 0 0 0 0 0 0 0 0 0 0 0 0 0 0 0 0 0
69 84 94 90 82 70 60 53 48 45 42 39 35 28 19 10 3 0 0 0 0 0 0 0 0 0 0 0 0 0 0 0 0 0 0 0 0 0 0 0 0 0 0
74 83 86 76 63 49 37 29 24 21 19 18 17 14 10 4 1 0 0 0 0 0 0 0 0 0 0 0 0 0 0 0 0 0 0 0 0 0 0 0 0 0 0
75 78 74 59 42 28 19 13 10 8 8 8 8 7 3 1 0 0 0 0 0 0 0 0 0 0 0 0 0 0 0 0 0 0 0 0 0 0 0 0 0 0 0
74 72 62 43 25 13 8 4 3 3 3 4 4 3 1 0 0 0 0 0 0 0 0 0 0 0 0 0 0 0 0 0 0 0 0 0 0 0 0 0 0 0 0
72 66 50 30 14 6 2 1 0 1 1 2 2 1 0 0 0 0 0 0 0 0 0 0 0 0 0 0 0 0 0 0 0 0 0 0 0 0 0 0 0 0 0
66 56 37 19 8 3 0 0 0 0 0 0 0 0 0 0 0 0 0 0 0 0 0 0 0 0 0 0 0 0 0 0 0 0 0 0 0 0 0 0 0 0 0
54 42 24 10 3 1 0 0 0 0 0 0 0 0 0 0 0 0 0 0 0 0 0 0 0 0 0 0 0 0 0 0 0 0 0 0 0 0 0 0 0 0 0
38 28 14 5 1 0 0 0 0 0 0 0 0 0 0 0 0 0 0 0 0 0 0 0 0 0 0 0 0 0 0 0 0 0 0 0 0 0 0 0 0 0 0
25 18 8 3 1 0 0 0 0 0 0 0 0 0 0 0 0 0 0 0 0 0 0 0 0 0 0 0 0 0 0 0 0 0 0 0 0 0 0 0 0 0 0
18 12 4 2 1 0 0 0 0 0 0 0 0 0 0 0 0 0 0 0 0 0 0 0 0 0 0 0 0 0 0 0 0 0 0 0 0 0 0 0 0 0 0
13 7 2 1 1 0 0 0 0 0 0 0 0 0 0 0 0 0 0 0 0 0 0 0 0 0 0 0 0 0 0 0 0 0 0 0 0 0 0 0 0 0 0
7 3 1 0 0 0 0 0 0 0 0 0 0 0 0 0 0 0 0 0 0 0 0 0 0 0 0 0 0 0 0 0 0 0 0 0 0 0 0 0 0 0 0
2 1 0 0 0 0 0 0 0 0 0 0 0 0 0 0 0 0 0 0 0 0 0 0 0 0 0 0 0 0 0 0 0 0 0 0 0 0 0 0 0 0 0
0 0 0 0 0 0 0 0 0 0 0 0 0 0 0 0 0 0 0 0 0 0 0 0 0 0 0 0 0 0 0 0 0 0 0 0 0 0 0 0 0 0 0
0 0 0 0 0 0 0 0 0 0 0 0 0 0 0 0 0 0 0 0 0 0 0 0 0 0 0 0 0 0 0 0 0 0 0 0 0 0 0 0 0 0 0
0 0 0 0 0 0 0 0 0 0 0 0 0 0 0 0 0 0 0 0 0 0 0 0 0 0 0 0 0 0 0 0 0 0 0 0 0 0 0 0 0 0 0
0 0 0 0 0 0 0 0 0 0 0 0 0 0 0 0 0 0 0 0 0 0 0 0 0 0 0 0 0 0 0 0 0 0 0 0 0 0 0 0 0 0 0
0 0 0 0 0 0 0 0 0 0 0 0 0 0 0 0 0 0 0 0 0 0 0 0 0 0 0 0 0 0 0 0 0 0 0 0 0 0 0 0 0 0 0
0 0 0 0 0 0 0 0 0 0 0 0 0 0 0 0 0 0 0 0 0 0 0 0 0 0 0 0 0 0 0 0 0 0 0 0 0 0 0 0 0 0 0
0 0 0 0 0 0 0 0 0 0 0 0 0 0 0 0 0 0 0 0 0 0 0 0 0 0 0 0 0 0 0 0 0 0 0 0 0 0 0 0 0 0 0
0 0 0 0 0 0 0 0 0 0 0 0 0 0 0 0 0 0 0 0 0 0 0 0 0 0 0 0 0 0 0 0 0 0 0 0 0 0 0 0 0 0 0
Wind_Speed
9 8 14 16 13 11 11 9 9 8 7 6 7 6 6 5 5 6 6 6 6 6 4 5 3 3 4 4 4 3 4 3 2 3 4 5 7 7 5 3 2 2 2
7 11 14 15 14 12 11 9 9 9 7 5 4 5 6 6 6 6 6 6 6 4 5 4 3 4 2 2 1 1 2 3 3 3 4 4 5 3 5 3 2 2 2
9 13 14 14 13 11 10 9 8 8 6 7 6 6 5 6 6 5 4 5 5 5 5 4 4 3 2 2 1 2 2 3 4 3 2 3 3 5 5 6 5 4 3
10 14 15 14 12 10 8 8 8 7 6 7 7 8 7 6 6 5 5 5 4 4 4 4 4 3 2 3 3 5 3 3 3 3 2 3 3 3 4 4 5 6 5
10 15 15 13 12 11 9 8 8 7 6 5 6 6 5 5 5 6 6 5 4 4 4 4 3 1 1 3 3 2 3 3 3 4 4 5 4 4 5 7 5 5 5
10 16 16 15 13 11 10 9 9 7 6 5 4 4 7 7 7 6 5 4 5 4 3 4 2 1 2 2 1 1 2 1 2 2 3 4 4 5 5 7 7 6 5
12 17 17 15 13 12 10 9 9 8 6 5 6 6 7 7 6 5 4 2 4 5 4 4 2 2 1 0 0 1 2 2 2 2 3 4 4 4 5 7 8 9 7
12 16 16 14 12 12 11 10 9 8 7 6 6 6 6 4 3 2 2 1 3 6 5 3 2 0 1 2 1 2 3 2 2 5 5 4 5 4 4 5 8 11 10
14 16 15 13 12 12 10 10 9 8 7 7 6 5 4 5 5 3 2 4 3 4 4 2 0 1 1 2 2 3 4 4 4 5 5 5 4 4 4 5 5 9 13
15 17 15 13 11 11 10 9 8 8 7 6 5 5 5 5 4 3 5 5 4 4 1 1 1 2 3 3 4 4 4 4 5 5 6 6 5 4 4 5 5 6 10
16 16 15 14 13 13 11 10 8 8 6 5 4 5 4 3 2 3 4 3 2 1 2 2 2 3 4 4 4 5 6 6 5 6 6 6 6 5 4 5 5 6 8
16 17 17 16 14 13 11 9 7 6 5 6 6 5 4 3 3 4 3 2 1 2 3 3 4 4 5 4 5 5 6 5 6 6 7 7 7 6 5 5 6 7 7
15 15 16 15 14 12 11 9 6 6 5 6 6 5 4 4 4 4 3 2 2 2 3 4 5 5 5 5 5 6 6 7 7 8 8 8 8 8 6 7 7 7 8
13 14 14 13 13 12 11 9 7 6 7 7 6 5 4 4 3 2 2 2 3 3 4 4 5 5 6 9 10 10 9 8 9 9 9 9 9 8 8 8 8 8 8
11 14 14 13 13 12 11 10 9 8 7 7 5 4 2 1 1 2 2 3 4 5 4 5 6 7 6 8 9 9 10 9 10 10 10 10 13 15 11 10 8 8 8
11 13 14 14 13 12 11 10 9 8 7 5 3 2 1 1 1 2 2 3 4 4 5 6 6 7 6 6 8 9 9 10 10 10 10 11 12 14 15 18 18 16 12
11 12 12 13 12 11 11 10 8 6 4 2 1 0 1 1 1 3 4 4 4 5 5 5 5 5 3 2 4 9 9 10 9 9 10 11 11 13 10 13 17 16 18
13 13 13 13 12 11 10 7 5 3 2 1 0 0 1 2 3 4 5 5 5 5 5 5 5 4 2 2 5 10 10 9 9 10 11 11 11 12 12 12 12 12 11
14 13 13 12 11 9 7 5 3 2 2 1 1 2 3 5 6 7 7 6 5 5 5 5 5 5 2 2 5 9 9 8 11 11 11 12 12 13 15 13 12 11 9
13 13 12 11 9 6 4 3 3 2 2 3 5 6 6 6 7 7 6 5 4 5 5 5 5 6 5 3 5 9 8 9 10 10 10 11 11 13 14 10 9 9 8
13 12 10 7 5 3 3 3 3 4 5 6 7 6 5 4 6 5 4 4 5 4 5 6 6 5 6 6 8 11 8 9 10 9 8 7 12 13 13 11 7 8 8
11 9 7 5 3 3 4 5 5 5 6 6 6 6 6 6 6 4 3 4 5 5 5 6 7 6 7 8 11 14 13 12 9 8 7 7 13 13 12 8 8 10 7
8 6 6 6 5 4 5 6 5 5 5 5 5 4 5 5 5 4 5 4 5 5 6 6 7 7 7 8 13 14 15 15 9 7 11 12 13 11 8 8 9 7 4
7 6 7 7 6 6 7 6 5 5 5 4 3 3 4 4 4 4 5 5 6 6 6 7 7 7 7 8 9 9 9 11 9 8 9 10 10 7 7 6 5 4 4
7 7 7 8 8 7 7 6 5 5 4 3 3 4 5 4 3 5 5 6 6 5 5 6 6 6 7 10 14 9 8 8 9 8 5 5 6 6 6 5 5 5 5
7 7 7 8 8 8 8 7 6 6 5 5 5 4 4 4 4 3 4 4 3 3 1 3 5 6 7 12 14 16 14 13 14 8 6 6 6 6 6 6 5 5 5
Wind_Direction
190 150 136 134 139 144 150 150 153 148 150 150 155 145 137 125 108 104 98 87 80 76 60 76 80 59 63 56 34 19 340 316 326 312 298 281 270 262 254 259 271 274 292
161 132 132 140 148 151 151 151 151 153 159 148 142 136 129 119 105 97 96 92 84 73 87 69 65 69 64 90 59 22 328 322 340 322 308 301 295 337 349 351 330 328 340
174 146 142 146 149 153 157 157 152 153 155 134 121 113 102 109 115 125 112 100 99 86 72 73 58 38 5 77 20 8 355 338 326 309 310 313 319 342 319 338 342 341 320
193 158 152 148 147 146 141 136 134 134 128 127 136 143 152 152 144 136 121 109 100 101 94 82 71 37 12 52 12 56 356 338 314 327 338 325 325 299 306 315 311 309 307
195 155 148 144 138 132 127 123 121 122 126 133 146 154 143 124 121 121 128 129 119 114 115 108 88 57 44 70 41 32 357 333 347 348 341 331 318 285 277 293 300 303 293
156 139 135 131 127 125 123 123 120 116 119 123 127 129 123 125 128 129 140 155 150 145 134 123 97 55 57 63 36 18 305 337 355 329 317 309 307 314 313 307 304 298 300
133 131 131 132 133 132 130 128 124 118 114 109 105 106 110 114 124 135 157 186 153 132 107 97 92 60 63 290 287 288 292 287 276 272 275 288 302 304 301 300 302 301 301
133 130 130 132 136 136 134 131 125 119 112 106 103 103 116 131 127 107 134 111 74 100 118 110 118 105 308 318 3 311 283 266 259 268 271 271 272 277 286 292 299 298 295
130 127 128 131 136 135 132 130 125 120 115 111 109 108 100 92 97 90 57 83 75 111 98 103 139 278 288 289 288 275 284 277 262 264 268 264 269 272 277 280 281 287 292
124 124 124 129 129 124 118 115 116 116 114 115 123 115 97 96 108 104 78 71 67 63 68 269 270 273 270 263 262 273 269 270 267 264 268 271 268 269 268 269 273 274 283
125 125 128 125 120 117 118 116 113 112 113 111 96 96 97 101 109 95 97 91 77 76 273 286 283 281 277 272 266 269 276 279 282 287 289 287 284 280 278 278 279 281 284
125 127 125 123 123 123 121 117 115 113 109 100 89 83 76 68 66 76 71 69 58 323 313 310 302 296 297 298 294 299 308 310 310 309 305 299 298 292 287 281 280 280 277
116 121 124 125 126 125 122 116 109 105 103 99 92 81 73 65 53 52 43 17 349 318 312 309 306 313 320 329 346 351 346 341 332 324 314 308 303 295 291 285 280 276 275
119 122 123 124 124 123 119 112 97 86 84 83 83 73 60 52 42 27 2 335 322 310 310 320 332 343 10 31 21 5 348 340 331 320 310 302 297 294 291 286 276 275 274
120 124 124 123 121 116 109 101 92 80 76 74 73 68 57 42 19 356 330 324 331 340 357 357 2 8 38 39 20 355 342 332 317 307 301 297 298 294 288 285 280 278 277
110 118 119 120 118 114 109 99 89 80 74 69 65 59 8 352 335 322 342 3 12 14 14 14 15 16 35 48 20 354 333 316 306 303 303 302 296 298 298 293 291 285 280
97 106 109 110 109 106 103 98 93 87 81 72 54 335 276 310 3 21 41 34 24 24 16 15 20 23 71 62 343 330 317 305 305 309 308 309 310 312 305 304 302 295 287
88 95 100 101 100 99 97 98 101 104 104 103 120 327 29 44 61 55 44 36 22 16 6 18 12 359 27 211 296 317 312 312 315 313 310 311 311 312 314 308 299 291 286
88 92 96 99 100 99 102 108 115 134 142 142 88 51 47 55 51 45 32 28 14 15 5 15 359 345 341 236 308 328 322 320 320 316 316 315 313 316 318 311 301 296 293
90 96 98 99 100 105 115 122 127 122 104 85 70 61 55 57 57 48 32 14 10 16 4 5 349 343 352 12 0 345 332 328 323 317 316 316 321 321 322 318 310 309 309
97 99 100 99 108 126 129 116 105 89 81 79 75 65 46 68 78 61 37 15 11 12 9 360 351 354 358 11 12 349 340 331 319 316 319 322 327 326 326 324 321 320 315
103 103 102 102 105 112 105 88 80 80 81 79 77 67 47 42 59 55 44 31 12 12 12 3 357 357 358 7 357 342 333 328 322 319 321 323 326 325 325 327 330 329 328
115 119 118 113 111 104 98 95 96 96 95 89 86 84 81 72 46 36 39 31 25 19 13 8 359 353 353 356 352 339 331 331 331 325 328 328 326 326 326 335 338 342 351
135 136 123 112 103 96 92 89 89 89 88 87 94 104 88 78 69 45 39 39 29 21 14 9 356 349 350 354 348 337 334 338 340 334 329 329 334 340 337 343 355 3 12
133 126 116 109 104 98 93 89 86 88 90 79 69 79 76 65 71 69 49 48 61 45 20 7 350 348 350 341 333 338 342 342 338 331 336 351 354 359 359 2 8 11 13
133 125 115 107 99 91 82 75 68 59 51 50 42 54 58 56 55 80 99 77 99 146 95 2 352 354 351 340 345 349 347 349 348 355 358 358 359 359 360 1 6 13 12